CW1792 Weather Reports


Display with metric or nautical units.
time (UTC)temp
F
wind
direction
speed
MPH
gust
MPH
rain 1hr
in
rain 24hr
in
rain mn
in
humidity
%
barometer
mb
20260503202327 65 223 2.0 6.0 0.00 0.00 0.00 56 1012.0
20260503201826 65 257 2.0 7.0 0.00 0.00 0.00 57 1012.0
20260503201326 65 238 3.0 8.0 0.00 0.00 0.00 57 1012.1
20260503200327 65 240 6.0 12.0 0.00 0.00 0.00 57 1012.2
20260503195826 65 267 5.0 8.0 0.00 0.00 0.00 56 1012.1
20260503195326 65 257 4.0 8.0 0.00 0.00 0.00 57 1012.1
20260503194826 65 251 2.0 9.0 0.00 0.00 0.00 58 1012.1
20260503194326 65 240 3.0 7.0 0.00 0.00 0.00 58 1012.2
20260503193826 64 240 5.0 12.0 0.00 0.00 0.00 57 1012.2
20260503193326 64 204 1.0 8.0 0.00 0.00 0.00 58 1012.3
20260503192827 64 234 3.0 12.0 0.00 0.00 0.00 57 1012.3
20260503192327 64 257 1.0 6.0 0.00 0.00 0.00 59 1012.2
20260503191827 63 175 2.0 5.0 0.00 0.00 0.00 59 1012.3
20260503191326 63 230 2.0 3.0 0.00 0.00 0.00 60 1012.4
20260503190327 63 243 3.0 7.0 0.00 0.00 0.00 59 1012.3
20260503185827 63 243 2.0 8.0 0.00 0.00 0.00 60 1012.3
20260503185327 63 267 4.0 7.0 0.00 0.00 0.00 61 1012.4
20260503184828 62 254 5.0 8.0 0.00 0.00 0.00 60 1012.4
20260503184327 62 256 2.0 7.0 0.00 0.00 0.00 61 1012.4
20260503183327 62 201 3.0 8.0 0.00 0.00 0.00 63 1012.4
20260503182826 61 215 3.0 8.0 0.00 0.00 0.00 63 1012.5
20260503182326 61 215 5.0 8.0 0.00 0.00 0.00 62 1012.5
20260503181326 61 235 2.0 8.0 0.00 0.00 0.00 66 1012.5
20260503180326 60 144 1.0 7.0 0.00 0.00 0.00 68 1012.5
20260503175827 60 226 3.0 7.0 0.00 0.00 0.00 68 1012.5
20260503175327 60 198 2.0 8.0 0.00 0.00 0.00 70 1012.5
20260503174826 60 230 2.0 5.0 0.00 0.00 0.00 72 1012.5
20260503174326 59 222 2.0 5.0 0.00 0.00 0.00 73 1012.5
20260503173827 59 170 3.0 7.0 0.00 0.00 0.00 74 1012.5
20260503173327 59 252 2.0 7.0 0.00 0.00 0.00 74 1012.5
20260503172827 59 231 4.0 8.0 0.00 0.00 0.00 74 1012.5
20260503172327 59 232 2.0 7.0 0.00 0.00 0.00 76 1012.5
20260503171827 59 238 1.0 6.0 0.00 0.00 0.00 78 1012.5
20260503171326 59 249 1.0 5.0 0.00 0.00 0.00 78 1012.5
20260503170326 59 244 2.0 6.0 0.00 0.00 0.00 75 1012.5
20260503150826 57 134 2.0 5.0 0.00 0.00 0.00 78 1012.0
20260503131326 55 246 0.0 1.0 0.00 0.00 0.00 77 1010.8
20260503130826 55 248 0.0 3.0 0.00 0.00 0.00 77 1010.6
20260503130327 55 232 0.0 1.0 0.00 0.00 0.00 77 1010.5
20260503110827 56 231 0.0 2.0 0.00 0.00 0.00 77 1010.5
20260503110327 56 256 0.0 2.0 0.00 0.00 0.00 77 1010.5
20260503081326 57 305 1.0 2.0 0.00 0.00 0.00 74 1011.0
20260503080826 57 313 1.0 3.0 0.00 0.00 0.00 74 1011.1
20260503080326 57 342 0.0 1.0 0.00 0.00 0.00 74 1011.2
20260503072826 57 0 0.0 2.0 0.00 0.00 0.00 74 1011.3
20260503071826 57 3 0.0 3.0 0.00 0.00 0.00 74 1011.3
20260503071326 57 31 1.0 2.0 0.00 0.00 0.00 74 1011.3
20260503070826 57 35 1.0 3.0 0.00 0.00 0.00 73 1011.3
20260503070326 57 6 1.0 3.0 0.00 0.00 0.00 73 1011.3
20260503060326 58 89 0.0 1.0 0.00 0.00 0.00 74 1011.4
20260503054826 58 36 2.0 5.0 0.00 0.00 0.00 73 1011.5
20260503054326 58 71 1.0 6.0 0.00 0.00 0.00 73 1011.5
20260503053826 58 94 1.0 6.0 0.00 0.00 0.00 72 1011.6
20260503053326 58 37 1.0 3.0 0.00 0.00 0.00 72 1011.6
20260503052827 58 17 2.0 5.0 0.00 0.00 0.00 72 1011.6
20260503052326 58 67 1.0 3.0 0.00 0.00 0.00 72 1011.7
20260503050826 58 61 1.0 3.0 0.00 0.00 0.00 73 1011.8
20260503050326 58 60 1.0 3.0 0.00 0.00 0.00 72 1011.7
20260503045826 58 40 1.0 3.0 0.00 0.00 0.00 72 1011.7
20260503045326 58 7 1.0 3.0 0.00 0.00 0.00 71 1011.6
20260503044826 58 328 1.0 3.0 0.00 0.00 0.00 71 1011.5
20260503044326 58 54 1.0 2.0 0.00 0.00 0.00 71 1011.6
20260503043826 58 0 0.0 2.0 0.00 0.00 0.00 71 1011.5
20260503043326 58 33 2.0 6.0 0.00 0.00 0.00 71 1011.4
20260503042326 59 68 1.0 3.0 0.00 0.00 0.00 70 1011.4
20260503041826 59 36 0.0 2.0 0.00 0.00 0.00 70 1011.4
20260503041326 59 29 1.0 3.0 0.00 0.00 0.00 69 1011.3
20260503040826 59 358 2.0 3.0 0.00 0.00 0.00 69 1011.3
20260503040326 59 2 1.0 6.0 0.00 0.00 0.00 69 1011.3
20260503035827 59 357 2.0 6.0 0.00 0.00 0.00 68 1011.2
20260503035326 59 23 1.0 3.0 0.00 0.00 0.00 68 1011.1
20260503034826 60 354 1.0 3.0 0.00 0.00 0.00 67 1011.1
20260503034326 60 30 1.0 3.0 0.00 0.00 0.00 67 1010.9
20260503033826 60 6 1.0 3.0 0.00 0.00 0.00 67 1010.9
20260503033326 60 7 1.0 5.0 0.00 0.00 0.00 67 1010.9
20260503032826 60 52 3.0 6.0 0.00 0.00 0.00 67 1010.8
20260503032326 60 44 3.0 7.0 0.00 0.00 0.00 67 1010.8
20260503031826 60 28 2.0 6.0 0.00 0.00 0.00 67 1010.8
20260503031326 61 31 1.0 6.0 0.00 0.00 0.00 67 1010.8
20260503030826 61 66 2.0 6.0 0.00 0.00 0.00 66 1010.7
20260503030326 61 55 2.0 7.0 0.00 0.00 0.00 66 1010.6
20260503025826 61 44 3.0 7.0 0.00 0.00 0.00 66 1010.5
20260503025326 61 14 2.0 7.0 0.00 0.00 0.00 66 1010.5
20260503024826 62 54 5.0 8.0 0.00 0.00 0.00 65 1010.4
20260503024326 62 9 1.0 3.0 0.00 0.00 0.00 65 1010.4
20260503023827 62 41 2.0 7.0 0.00 0.00 0.00 65 1010.4
20260503023326 62 41 3.0 7.0 0.00 0.00 0.00 65 1010.3
20260503022826 62 13 3.0 6.0 0.00 0.00 0.00 66 1010.3
20260503022326 63 40 3.0 7.0 0.00 0.00 0.00 66 1010.2
20260503021826 63 44 4.0 7.0 0.00 0.00 0.00 66 1010.1
20260503021326 63 28 3.0 10.0 0.00 0.00 0.00 66 1010.2
20260503020326 63 26 3.0 7.0 0.00 0.00 0.00 65 1010.2
20260503015826 64 9 2.0 6.0 0.00 0.00 0.00 65 1010.2
20260503015326 64 53 2.0 6.0 0.00 0.00 0.00 65 1010.2
20260503014826 64 38 2.0 7.0 0.00 0.00 0.00 65 1010.2
20260503014326 64 15 3.0 8.0 0.00 0.00 0.00 65 1010.2
20260503013827 64 57 2.0 7.0 0.00 0.00 0.00 64 1010.2
20260503013326 64 36 3.0 8.0 0.00 0.00 0.00 64 1010.3
20260503012827 64 25 3.0 9.0 0.00 0.00 0.00 64 1010.3
20260503012326 65 35 4.0 8.0 0.00 0.00 0.00 64 1010.2
20260503011826 65 56 4.0 8.0 0.00 0.00 0.00 64 1010.2
20260503011326 65 53 4.0 8.0 0.00 0.00 0.00 63 1010.3
20260503010826 65 29 2.0 8.0 0.00 0.00 0.00 62 1010.2
20260503010326 66 357 3.0 7.0 0.00 0.00 0.00 62 1010.2
20260503005326 66 22 5.0 12.0 0.00 0.00 0.00 62 1010.2
20260503004826 66 18 3.0 10.0 0.00 0.00 0.00 61 1010.2
20260503003826 67 345 3.0 7.0 0.00 0.00 0.00 60 1010.2
20260503003326 67 5 3.0 7.0 0.00 0.00 0.00 60 1010.2
20260503002826 67 36 5.0 8.0 0.00 0.00 0.00 60 1010.2
20260503002326 67 19 3.0 7.0 0.00 0.00 0.00 60 1010.2
20260503001825 67 28 3.0 13.0 0.00 0.00 0.00 60 1010.2
20260503001325 67 33 3.0 10.0 0.00 0.00 0.00 60 1010.2
20260503000826 67 12 1.0 7.0 0.00 0.00 0.00 60 1010.2
20260503000326 67 345 5.0 8.0 0.00 0.00 0.00 60 1010.2
20260502235826 68 30 3.0 6.0 0.00 0.00 0.00 60 1010.2
20260502235326 68 352 3.0 10.0 0.00 0.00 0.00 60 1010.3
20260502234826 68 41 3.0 7.0 0.00 0.00 0.00 60 1010.2
20260502233826 68 16 3.0 7.0 0.00 0.00 0.00 60 1010.3
20260502233326 68 6 5.0 10.0 0.00 0.00 0.00 59 1010.3
20260502232826 68 340 3.0 9.0 0.00 0.00 0.00 59 1010.4
20260502232326 68 18 3.0 6.0 0.00 0.00 0.00 59 1010.4
20260502231826 68 35 2.0 12.0 0.00 0.00 0.00 59 1010.4
20260502231326 68 23 4.0 10.0 0.00 0.00 0.00 59 1010.5
20260502230826 69 7 3.0 10.0 0.00 0.00 0.00 59 1010.5
20260502230326 69 343 4.0 8.0 0.00 0.00 0.00 59 1010.6
20260502225826 69 7 4.0 10.0 0.00 0.00 0.00 59 1010.7
20260502225326 69 7 2.0 7.0 0.00 0.00 0.00 59 1010.7
20260502224826 69 317 3.0 8.0 0.00 0.00 0.00 58 1010.8
20260502224326 69 18 5.0 12.0 0.00 0.00 0.00 58 1010.8
20260502223826 69 27 4.0 8.0 0.00 0.00 0.00 59 1010.9
20260502222826 69 335 3.0 8.0 0.00 0.00 0.00 59 1011.0
20260502222326 69 0 4.0 9.0 0.00 0.00 0.00 59 1011.1
20260502220827 69 50 4.0 8.0 0.00 0.00 0.00 60 1011.3
20260502220326 69 4 2.0 5.0 0.00 0.00 0.00 60 1011.3
20260502215826 69 345 5.0 8.0 0.00 0.00 0.00 60 1011.4
20260502215326 69 354 6.0 10.0 0.00 0.00 0.00 59 1011.4
20260502214826 69 343 3.0 7.0 0.00 0.00 0.00 59 1011.5
20260502214326 69 327 3.0 10.0 0.00 0.00 0.00 59 1011.6
20260502213826 69 334 4.0 8.0 0.00 0.00 0.00 58 1011.6
20260502213326 69 4 5.0 12.0 0.00 0.00 0.00 58 1011.6
20260502212826 70 29 4.0 9.0 0.00 0.00 0.00 59 1011.7
20260502212326 70 323 2.0 7.0 0.00 0.00 0.00 58 1011.6
20260502211826 70 292 5.0 7.0 0.00 0.00 0.00 57 1011.7
20260502211326 70 8 5.0 12.0 0.00 0.00 0.00 57 1011.8
20260502210826 70 40 5.0 10.0 0.00 0.00 0.00 58 1011.8
20260502210326 70 7 3.0 8.0 0.00 0.00 0.00 57 1011.8
20260502205326 70 40 5.0 9.0 0.00 0.00 0.00 59 1011.9
20260502204826 70 41 0.0 5.0 0.00 0.00 0.00 59 1011.9
20260502204326 70 87 2.0 6.0 0.00 0.00 0.00 59 1012.0
20260502203826 69 92 2.0 8.0 0.00 0.00 0.00 59 1012.1
20260502203326 69 74 3.0 8.0 0.00 0.00 0.00 59 1012.2